User: anonymous   Login
Location: Unspecified
(37.6859°S, 0.0000°E)
Time: 08:01:12
(UTC+00:00)
Language:

Jawsat - Orbit

View from above orbital plane
View from above orbital plane
View from above satellite
View from above satellite

Ground track
Ground track

The orbit is defined by the following mean orbital elements,

1 26061U          26087.91151837 +.00000000 +00000-0 +23073-3 0 00004
2 26061 100.2225  76.8586 0032513  98.9596 261.5272 14.45006880    00
Epoch (UTC): 28 March 2026 21:52:35
Eccentricity: 0.0032513
inclination: 100.2225°
perigee height: 719 km
apogee height: 765 km
right ascension of ascending node: 76.8586°
argument of perigee: 98.9596°
revolutions per day: 14.45006880
mean anomaly at epoch: 261.5272°

The dashed part of the orbit path shows where the satellite is in the earth's shadow,  

DLR